This is the latest recevied weather packets stored in our database for station/object K7DC. If no packets are shown the sender has not sent any weather packets the latest 10 day(s).
| Time | Temp. | Humidity | Pressure | Rain* | Wind** | Luminosity | Snow |
|---|---|---|---|---|---|---|---|
| 1777547832 | 16.11° C | 28% | 1012.1 hPa | 0 mm | - | 0 W/m² | - |
| 1777547528 | 16.67° C | 28% | 1012.1 hPa | 0 mm | - | 0 W/m² | - |
| 1777547226 | 16.67° C | 28% | 1012.1 hPa | 0 mm | - | 0 W/m² | - |
| 1777546923 | 16.67° C | 29% | 1012.1 hPa | 0 mm | - | 0 W/m² | - |
| 1777546620 | 16.67° C | 28% | 1012.5 hPa | 0 mm | - | 0 W/m² | - |
| 1777546316 | 16.67° C | 29% | 1012.5 hPa | 0 mm | - | 0 W/m² | - |
| 1777546014 | 16.67° C | 29% | 1012.4 hPa | 0 mm | - | 0 W/m² | - |
| 1777545709 | 16.67° C | 30% | 1012.4 hPa | 0 mm | - | 0 W/m² | - |
| 1777545407 | 16.67° C | 31% | 1012.8 hPa | 0 mm | - | 0 W/m² | - |
| 1777545104 | 16.11° C | 33% | 1012.5 hPa | 0 mm | - | 0 W/m² | - |
| 1777544801 | 16.11° C | 34% | 1012.5 hPa | 0 mm | - | 0 W/m² | - |
| 1777544496 | 16.11° C | 33% | 1012.8 hPa | 0 mm | - | 0 W/m² | - |
| 1777544193 | 16.11° C | 33% | 1012.8 hPa | 0 mm | - | 0 W/m² | - |
| 1777543891 | 16.11° C | 33% | 1013.2 hPa | 0 mm | - | 0 W/m² | - |
| 1777543587 | 16.11° C | 32% | 1013.2 hPa | 0 mm | - | 0 W/m² | - |
| 1777543283 | 16.11° C | 34% | 1012.6 hPa | 0 mm | - | 0 W/m² | - |
| 1777542979 | 16.11° C | 28% | 1012.8 hPa | 0 mm | - | 0 W/m² | - |
| 1777542675 | 16.11° C | 25% | 1013 hPa | 0 mm | - | 0 W/m² | - |
| 1777542372 | 16.67° C | 26% | 1012.7 hPa | 0 mm | - | 0 W/m² | - |
| 1777542069 | 16.67° C | 26% | 1012.9 hPa | 0 mm | - | 0 W/m² | - |
| 1777541766 | 16.67° C | 25% | 1012.9 hPa | 0 mm | - | 0 W/m² | - |
| 1777541463 | 16.67° C | 26% | 1013 hPa | 0 mm | - | 0 W/m² | - |
| 1777541159 | 16.67° C | 24% | 1013.1 hPa | 0 mm | - | 0 W/m² | - |
| 1777540856 | 17.22° C | 24% | 1012.9 hPa | 0 mm | - | 0 W/m² | - |
| 1777540553 | 17.22° C | 25% | 1013.2 hPa | 0 mm | - | 0 W/m² | - |
* Rain latest hour (hover to see other rain measurements)
** Current wind speed in m/s (hover to see current wind gust speed)